Theta_e
308 308 309 311 310 312 313 317 317 315 314 314 315 316 317 317 317 314 306 313 316 324 322 319 320 319 314 309 313 313 305 302 299 294 297 303 302 305 312 314 317 318 318 323 331
307 307 308 310 310 312 312 316 318 316 314 313 315 316 317 318 315 307 313 319 321 325 315 317 316 316 306 307 310 310 306 304 303 299 298 301 303 303 305 310 314 314 312 313 324
307 306 308 310 311 311 312 316 319 317 314 313 315 316 317 318 310 305 320 319 324 323 316 319 318 312 304 307 307 306 306 304 298 301 301 301 301 304 304 303 304 307 306 308 310
306 306 308 310 310 311 311 315 316 315 313 314 316 317 317 315 298 310 318 319 325 319 315 315 314 307 301 300 305 299 306 304 302 302 300 299 303 300 303 302 306 308 308 309 307
305 306 308 309 310 310 311 313 316 314 313 314 317 317 313 305 303 315 319 320 320 314 312 311 310 309 299 301 303 301 300 304 304 302 301 302 301 301 301 306 308 310 309 309 308
305 305 306 308 309 310 310 311 316 315 315 316 317 318 308 300 310 318 316 317 317 313 312 311 308 310 304 302 301 302 302 301 302 302 300 299 298 302 301 305 306 307 308 308 308
305 305 306 308 309 309 309 311 316 317 316 317 317 312 304 300 312 317 315 317 317 313 309 311 311 307 308 302 305 302 298 300 300 300 299 300 296 297 301 304 304 305 306 305 305
305 305 306 306 308 308 309 310 311 317 317 318 316 311 299 310 317 314 314 313 317 314 312 312 312 309 307 307 303 298 298 294 299 300 299 300 297 298 302 303 302 304 304 304 303
305 305 305 306 307 308 307 309 312 316 317 317 312 308 297 311 309 312 313 308 313 312 312 311 310 306 306 301 295 296 291 291 295 302 299 297 297 299 301 302 303 304 304 303 303
305 305 305 306 307 307 306 310 313 317 315 314 312 301 301 298 309 309 312 312 307 308 306 306 304 301 302 299 291 291 291 293 294 300 300 298 296 298 300 301 302 303 302 302 301
305 305 306 306 306 305 304 308 305 303 307 301 300 299 300 306 311 306 310 309 308 304 299 303 297 295 298 300 297 297 296 294 297 300 298 298 299 301 300 300 301 302 302 302 301
305 305 305 306 305 305 306 299 296 297 296 304 305 303 304 306 299 303 309 302 302 297 301 297 294 300 300 299 296 296 294 294 298 297 295 296 296 301 300 299 302 302 302 301 300
304 304 305 305 303 302 298 295 301 302 296 299 303 301 301 303 297 300 304 302 300 297 297 295 296 301 297 296 294 295 294 294 294 297 295 293 291 295 300 300 301 303 303 302 301
303 303 304 304 300 300 295 299 301 306 292 293 298 301 302 301 294 305 305 301 299 297 297 296 299 296 295 294 296 291 297 295 295 293 287 295 287 296 298 296 297 299 301 301 301
303 302 302 304 300 298 298 300 304 307 280 295 297 306 303 295 297 298 305 300 295 296 297 293 295 295 294 295 297 293 297 295 295 293 291 290 287 292 298 295 295 298 299 301 301
302 302 300 300 302 301 303 302 306 287 279 288 295 295 295 295 295 299 299 301 301 296 297 296 297 298 297 299 298 298 295 294 294 292 285 291 288 291 292 296 298 299 299 300 300
301 300 300 301 296 303 302 302 285 281 289 286 289 293 293 291 292 294 293 292 290 287 288 293 293 296 297 294 297 296 291 285 283 283 282 291 289 292 298 299 300 300 299 300 300
299 299 298 299 302 303 299 291 280 284 285 292 290 293 288 291 291 291 291 289 293 292 289 287 285 293 296 295 292 292 291 286 279 281 285 289 285 292 296 295 297 297 301 300 297
297 299 298 299 302 303 293 283 284 285 290 289 290 287 287 290 291 290 289 289 292 293 287 286 287 296 297 298 297 292 288 294 287 288 283 288 291 295 293 291 293 295 299 297 296
297 295 294 298 302 299 288 285 285 290 291 292 284 289 285 287 287 288 288 291 290 294 295 291 285 293 294 295 297 294 297 287 288 280 279 286 288 289 292 292 291 293 295 295 294
295 289 294 298 301 293 284 285 286 291 290 290 288 287 289 288 289 287 288 291 293 293 295 292 290 287 291 290 291 291 290 291 291 288 282 281 287 293 293 295 292 293 293 293 291
292 284 294 299 287 284 284 285 288 289 291 291 292 291 289 291 289 288 288 290 295 294 289 292 289 285 287 293 295 295 292 292 286 284 287 286 286 295 293 293 295 293 292 293 292
289 288 295 295 281 282 283 282 287 287 287 287 288 292 293 290 286 290 290 295 295 294 290 292 287 283 284 289 291 289 292 294 293 291 286 283 286 291 292 292 293 293 292 292 290
288 282 286 288 285 282 281 282 282 288 288 288 287 289 290 289 292 288 290 294 295 294 296 295 289 286 281 285 290 286 289 292 291 286 286 287 289 294 292 292 292 292 292 291 289
287 283 282 279 280 283 283 281 281 281 286 289 286 286 287 285 287 288 291 292 293 294 293 292 285 287 288 290 290 289 289 290 289 291 287 290 291 294 298 299 294 293 292 289 288
285 283 281 281 282 281 281 280 280 283 283 282 283 287 288 284 286 285 287 290 289 292 290 291 284 287 284 289 288 285 288 290 291 292 292 292 292 300 298 299 296 292 290 288 288
289 286 286 282 281 280 281 281 280 283 285 287 286 285 284 287 290 291 291 289 287 285 287 287 285 284 280 286 286 281 285 287 289 292 292 288 294 299 297 293 294 293 291 289 289
Wind_Speed
9 8 9 9 5 10 13 16 2 12 10 10 8 5 4 2 3 6 4 4 3 4 6 7 7 9 2 2 2 3 4 6 7 5 4 6 1 6 5 8 9 8 9 8 8
10 10 10 9 6 10 16 19 10 13 11 9 9 7 6 4 4 4 3 2 2 6 4 7 11 11 3 1 2 5 4 6 7 3 2 5 6 4 3 8 11 10 11 13 7
11 11 11 9 9 11 11 20 16 12 10 9 10 8 7 8 8 4 8 1 4 5 0 4 10 6 4 3 3 2 3 9 3 3 4 4 8 6 4 7 7 6 7 9 9
11 11 11 12 11 10 12 16 14 11 9 8 8 8 6 9 8 4 7 2 4 5 6 8 9 5 3 3 1 4 1 9 6 3 1 4 6 4 10 6 3 6 4 6 8
11 12 12 13 14 12 11 13 9 6 6 7 9 8 7 6 5 5 4 5 9 7 8 7 7 7 5 3 4 7 3 4 7 10 8 9 10 7 8 5 4 5 4 6 7
10 12 12 13 13 11 11 8 10 2 4 10 9 8 6 9 4 5 5 8 9 7 7 3 3 4 9 7 3 4 7 4 3 5 3 4 6 4 5 2 3 3 5 6 7
11 13 12 14 13 13 11 10 11 6 7 10 10 6 5 7 2 4 10 6 8 4 8 4 4 2 9 7 5 3 7 4 2 1 2 7 3 4 6 4 2 4 5 5 6
11 12 12 13 12 14 11 10 11 8 7 11 4 5 5 2 4 6 7 7 7 3 3 2 1 7 6 12 5 4 2 5 7 1 0 4 12 8 7 8 4 3 4 4 5
11 11 11 11 11 12 10 10 10 4 8 8 4 7 7 1 4 4 6 8 9 5 3 3 2 6 10 9 5 2 3 7 5 7 3 7 6 7 6 7 7 6 4 4 3
10 10 11 11 12 14 7 9 5 10 7 4 1 4 4 5 4 4 2 9 6 10 6 5 4 6 8 8 4 6 3 7 11 10 11 12 12 5 6 8 10 8 6 6 4
10 9 10 11 12 10 5 2 5 5 1 6 5 5 5 5 2 5 5 8 9 14 8 9 6 7 9 7 2 4 8 7 10 3 9 18 17 16 11 11 12 11 9 8 8
9 9 8 10 10 8 2 5 4 4 3 3 4 7 3 1 5 8 4 9 10 13 10 6 11 8 3 4 3 3 4 6 3 4 3 10 19 18 13 14 14 14 13 11 8
13 12 11 10 7 7 8 4 8 7 2 2 1 3 4 4 3 11 9 4 13 15 14 11 3 10 8 7 8 7 6 5 6 10 3 5 12 19 15 16 14 12 11 12 12
11 12 14 10 0 2 3 8 8 6 2 5 6 4 6 2 4 4 8 5 8 15 15 12 7 6 10 11 11 8 3 7 6 7 5 11 7 14 22 19 18 16 16 16 15
10 10 11 15 3 4 6 9 9 5 4 10 7 2 5 6 5 8 3 4 11 11 11 4 10 11 15 11 12 6 3 4 6 8 8 8 7 7 10 21 21 21 20 18 17
10 10 6 2 5 5 5 9 3 1 4 3 1 7 9 5 3 8 9 2 4 8 11 10 2 12 12 9 10 3 2 2 4 6 7 15 9 7 8 19 19 20 21 20 18
8 11 6 2 4 6 5 2 2 5 3 3 4 6 12 7 6 9 15 13 12 9 15 14 8 3 4 10 8 9 6 2 5 5 6 2 12 15 8 10 14 17 19 19 16
7 4 6 5 4 4 0 2 6 2 4 5 2 10 11 8 8 10 14 17 19 16 9 14 10 16 12 15 8 18 15 6 5 4 6 4 10 5 3 6 2 6 17 16 16
5 2 2 6 5 3 1 3 1 3 3 6 4 6 6 9 3 11 16 18 18 12 12 14 14 8 11 12 14 14 20 15 14 7 5 9 12 11 5 2 4 6 15 16 16
1 1 3 8 6 4 1 4 1 2 3 10 6 9 9 12 10 11 12 10 21 19 11 6 9 10 10 2 12 9 9 13 8 5 8 9 12 11 7 10 9 12 15 16 16
2 2 3 5 4 1 4 1 2 0 2 2 9 7 7 11 15 11 7 6 14 18 13 8 7 4 3 13 15 9 12 12 9 13 4 6 4 3 5 2 13 14 15 16 16
1 2 3 2 2 1 3 4 2 0 2 3 4 7 10 11 13 13 13 8 12 18 14 14 6 11 11 1 9 13 22 21 11 7 13 13 19 6 3 2 4 11 13 15 15
2 1 2 3 3 4 2 4 3 4 3 1 3 5 7 7 5 14 11 8 5 11 12 12 7 7 5 6 7 9 15 20 20 14 16 10 7 3 4 6 7 10 14 15 16
2 2 1 1 0 3 4 4 5 6 4 4 2 1 7 8 13 5 10 8 6 8 12 2 12 14 19 15 10 11 17 19 18 13 22 24 22 12 8 7 9 12 15 17 17
1 2 1 4 6 7 4 1 6 6 6 7 5 8 5 5 10 9 11 7 6 7 3 7 8 17 23 19 15 12 17 21 22 30 19 33 24 22 21 15 15 14 14 17 19
4 4 2 2 3 9 6 6 8 7 10 8 10 11 11 6 2 5 8 10 7 9 9 7 11 11 19 20 20 7 11 16 26 33 26 34 28 18 7 8 13 16 18 18 20
3 2 2 6 7 7 6 7 10 7 7 4 9 8 10 12 5 9 13 11 5 4 3 6 8 9 21 15 14 14 24 29 19 23 24 25 37 10 15 10 13 17 18 22 22
Wind_Direction
63 53 16 21 10 5 14 342 205 157 174 178 159 174 205 198 229 230 178 25 24 153 268 137 152 149 128 72 326 284 170 164 167 172 91 19 173 68 29 87 59 37 48 14 104
53 31 18 17 39 26 14 349 172 160 154 163 173 180 209 207 222 193 34 344 16 193 177 149 146 141 57 49 346 254 211 160 146 21 110 50 32 15 180 108 95 87 42 24 35
50 33 18 24 43 38 23 9 147 152 152 171 168 181 194 213 209 97 9 303 151 227 95 124 132 114 75 337 16 347 241 136 135 1 319 115 73 8 127 88 41 50 20 27 39
39 36 19 30 47 39 43 13 136 145 153 165 160 174 203 215 173 88 351 236 163 236 161 150 152 103 83 138 89 81 49 141 140 32 312 81 95 73 43 60 26 63 53 59 51
37 32 23 28 42 33 47 26 27 151 161 151 150 163 200 202 77 348 336 190 173 184 166 164 167 139 139 122 123 131 105 153 110 84 100 113 89 98 67 54 88 93 85 73 63
37 30 27 30 40 26 34 23 18 164 160 147 148 191 241 165 338 344 172 164 167 177 150 157 121 96 128 130 51 127 130 115 145 148 138 102 99 156 90 40 88 107 82 60 50
33 23 26 21 34 20 9 21 14 30 155 156 155 227 247 95 351 83 141 166 167 164 136 73 74 250 125 110 111 14 136 131 92 124 133 128 145 154 137 137 145 127 94 66 52
24 22 22 17 24 17 1 5 346 40 142 145 189 235 75 26 32 133 153 132 174 133 137 51 97 83 109 129 91 83 40 180 173 203 327 203 232 153 166 162 171 147 108 71 62
26 19 22 18 24 17 358 326 322 79 137 161 207 272 114 158 117 104 178 148 157 149 105 119 196 113 147 142 104 207 179 201 197 208 159 190 237 151 183 177 187 188 151 122 103
25 16 16 20 18 11 332 312 329 118 143 199 299 222 158 128 103 125 152 157 146 151 147 185 191 173 185 189 192 185 193 206 214 191 224 217 239 171 193 208 202 196 181 164 150
17 17 15 28 9 7 345 315 140 105 58 6 123 66 112 102 195 154 153 168 160 175 176 187 207 201 194 210 33 304 211 193 225 229 246 232 239 217 193 215 205 203 196 196 161
25 19 9 2 18 8 286 58 42 332 119 35 92 83 89 354 135 157 204 180 179 183 174 175 227 202 194 197 222 215 211 233 189 132 210 259 251 248 197 222 216 206 198 194 176
28 18 359 342 351 39 67 41 313 308 204 125 136 84 144 219 178 164 196 179 195 192 193 210 91 207 203 198 212 224 242 237 255 179 240 308 261 242 224 223 223 222 201 198 196
13 11 5 326 292 17 50 321 304 276 137 155 179 159 148 189 177 128 220 223 210 202 203 236 155 204 204 220 215 232 204 257 239 203 245 178 285 225 215 218 216 211 203 204 200
8 10 15 21 78 61 350 313 297 238 196 124 137 35 157 206 107 180 137 214 199 192 193 173 198 187 208 215 206 244 107 203 203 221 282 213 263 255 216 211 216 213 206 202 201
17 5 342 24 54 34 340 295 284 284 221 158 351 179 165 190 157 125 182 244 340 207 232 238 18 235 226 215 205 119 172 182 255 256 254 233 219 247 194 224 226 209 208 200 195
18 28 38 12 51 1 321 337 129 249 335 178 198 181 196 173 178 202 188 196 189 192 210 216 209 199 241 197 203 205 185 228 219 205 249 27 219 255 237 216 232 214 200 196 187
32 21 30 44 351 337 232 129 218 54 212 90 206 174 194 183 215 201 200 211 222 222 211 213 215 198 184 218 194 205 205 206 237 235 308 96 247 255 307 352 108 296 184 179 181
311 80 60 17 340 313 71 199 356 147 149 155 104 177 182 211 260 203 222 221 212 204 224 209 230 163 185 200 213 195 220 233 285 274 272 246 245 260 196 215 218 185 168 176 183
196 158 65 341 322 260 97 213 278 13 329 175 202 205 184 199 204 198 202 230 224 216 230 269 268 173 181 231 234 266 211 208 224 244 244 252 262 262 232 221 197 186 187 181 180
224 214 57 339 278 164 219 210 272 2 337 274 219 206 233 190 211 201 248 193 216 215 212 266 252 102 143 209 206 194 221 219 230 231 256 290 262 32 12 331 201 198 194 188 183
191 163 32 308 174 241 197 186 278 209 51 318 299 254 216 209 204 214 236 228 194 208 213 211 279 243 217 338 254 244 220 215 220 213 233 261 264 204 130 117 195 198 193 189 185
130 60 82 266 219 209 191 242 239 186 169 49 302 305 238 229 223 214 227 231 212 209 212 183 226 237 230 235 213 236 233 236 232 254 245 225 247 50 183 210 207 192 184 184 183
152 169 117 224 33 266 206 223 210 210 223 169 259 274 256 238 234 242 224 208 202 238 243 293 234 224 231 230 189 208 218 225 237 232 241 243 248 236 209 219 194 189 186 186 187
206 183 13 194 226 219 215 181 195 196 208 205 208 228 257 252 236 241 237 205 204 185 215 229 247 238 250 258 271 270 222 216 217 233 222 246 243 243 253 243 208 189 186 189 191
182 179 181 154 179 191 200 216 222 220 168 199 225 216 215 240 323 350 327 243 215 193 182 226 257 258 265 254 246 242 253 241 225 234 239 252 260 247 279 297 182 191 190 197 198
161 139 250 155 177 185 208 215 218 213 227 222 213 247 251 246 293 261 240 255 280 331 290 202 215 216 249 237 246 239 227 230 245 237 239 247 247 263 247 226 202 202 198 200 198